Location: Newark
(7.0858°N, 171.3717°E)
Time: 07:48:31
(UTC+00:00)

Courier 1B - Pass Details

Date: 26 November 2020
Orbit: 962 x 1209 km, 28.3° (Epoch: 20 January)

Event Time Altitude Azimuth Distance (km) Brightness Sun altitude
Rises 18:21:57 0° 300° (WNW) 4,082 - -2.6°
Exits shadow 18:22:35 - 300° (WNW) 3,865 9.9 -2.4°
Reaches altitude 10° 18:24:46 10° 301° (WNW) 3,130 9.5 -1.9°
Maximum altitude 18:32:39 84° 29° (NNE) 1,210 8.1 -0.1°
Drops below altitude 10° 18:40:27 10° 117° (ESE) 3,099 12.5 1.7°
Sets 18:43:14 0° 118° (ESE) 4,038 13.5 2.3°
